Location: Newark
(34.2320°N, 82.8945°W)
Time: 02:19:32
(UTC+00:00)

Hubble Space Telescope - Visible Passes

Search period start: 09 April 2020 00:00
Search period end: 19 April 2020 00:00
Orbit: 536 x 540 km, 28.5° (Epoch: 08 April)

Date Brightness Start Highest point End Pass type
(mag) Time Alt. Az. Time Alt. Az. Time Alt. Az.
09 Apr 1.5 01:28:02 10° WSW 01:31:48 34° S 01:31:55 34° S visible
10 Apr 1.5 01:17:18 10° WSW 01:21:06 36° S 01:21:59 32° SSE visible
11 Apr 1.5 01:06:35 10° WSW 01:10:24 37° S 01:12:00 26° SE visible
12 Apr 1.6 00:55:54 10° WSW 00:59:42 36° S 01:01:59 20° SE visible
12 Apr 3.6 02:37:08 10° WSW 02:37:19 11° WSW 02:37:19 11° WSW visible
13 Apr 1.7 00:45:13 10° WSW 00:49:00 35° S 00:51:57 15° ESE visible
13 Apr 3.4 02:26:38 10° WSW 02:27:16 13° WSW 02:27:16 13° WSW visible
14 Apr 1.8 00:34:33 10° WSW 00:38:18 33° S 00:41:54 11° ESE visible
14 Apr 3.2 02:16:12 10° WSW 02:17:14 14° SW 02:17:14 14° SW visible
15 Apr 2.0 00:23:55 10° WSW 00:27:35 31° S 00:31:14 10° SE visible
15 Apr 3.2 02:05:54 10° SW 02:07:11 14° SW 02:07:11 14° SW visible
16 Apr 3.2 01:55:51 10° SW 01:57:09 12° SSW 01:57:09 12° SSW visible
